EDT,Max TemperatureF,Mean TemperatureF,Min TemperatureF,Max Dew PointF,MeanDew PointF,Min DewpointF,Max Humidity, Mean Humidity, Min Humidity, Max Sea Level PressureIn, Mean Sea Level PressureIn, Min Sea Level PressureIn, Max VisibilityMiles, Mean VisibilityMiles, Min VisibilityMiles, Max Wind SpeedMPH, Mean Wind SpeedMPH, Max Gust SpeedMPH,PrecipitationIn, CloudCover, Events, WindDirDegrees
2012-9-1,78,65,52,64,57,52,100,70,40,30.13,30.06,29.92,10,9,2,13,3,21,0.00,0,,28
2012-9-2,81,65,49,57,52,48,100,69,37,30.12,30.10,30.08,10,10,2,12,2,23,0.00,3,,52
2012-9-3,86,67,47,62,54,46,93,64,35,30.14,30.08,29.99,10,10,9,12,3,16,0.00,1,,79
2012-9-4,79,72,64,70,66,63,100,85,69,30.01,29.92,29.76,10,8,2,14,4,17,1.29,7,Rain,40
2012-9-5,82,72,62,66,64,62,100,77,54,29.86,29.82,29.75,10,9,1,13,4,16,0.03,5,Rain,326
2012-9-6,84,71,58,67,64,60,100,76,51,29.85,29.82,29.76,10,8,1,14,4,17,0.00,1,,249
2012-9-7,81,67,53,65,58,52,100,71,42,29.93,29.87,29.71,10,6,0,10,2,13,0.00,0,Fog,230
2012-9-8,84,71,57,67,60,48,93,70,46,29.74,29.52,29.35,10,8,0,35,14,43,0.55,5,Fog-Rain,208
2012-9-9,68,58,47,50,48,45,100,73,45,29.96,29.86,29.76,10,10,10,14,6,20,0.00,4,,264
2012-9-10,64,53,41,50,45,41,100,74,48,30.16,30.08,29.97,10,9,2,12,5,18,0.00,5,,309
2012-9-11,73,56,39,53,44,37,100,71,41,30.26,30.19,30.15,10,8,1,15,7,21,0.00,0,,218
2012-9-12,81,64,47,56,51,45,93,65,36,30.27,30.24,30.20,10,10,9,21,6,26,0.00,0,,220
2012-9-13,83,66,49,59,53,46,100,70,40,30.27,30.24,30.17,10,8,1,20,6,24,0.00,0,,219
2012-9-14,78,66,53,64,59,52,100,82,64,30.17,30.09,29.99,10,8,2,15,4,30,0.53,3,Rain,278
2012-9-15,66,57,47,54,48,42,93,73,52,30.17,30.12,30.07,10,10,10,17,9,22,T,7,,288
2012-9-16,64,50,35,44,39,35,100,70,39,30.17,30.11,30.02,10,6,1,14,4,16,0.00,0,,225
2012-9-17,79,62,44,60,52,43,93,68,42,30.02,29.97,29.90,10,10,10,16,5,21,0.00,1,,219
2012-9-18,70,60,50,67,60,50,100,86,72,29.90,29.57,29.37,10,6,1,23,9,32,1.33,7,Rain,168
2012-9-19,61,50,38,47,40,35,100,70,40,30.22,29.99,29.69,10,10,9,24,8,35,0.00,4,,262
2012-9-20,71,53,35,48,41,34,100,69,37,30.23,30.11,29.99,10,10,10,16,4,21,0.00,0,,169
2012-9-21,63,57,51,60,56,47,93,79,64,30.00,29.96,29.92,10,7,1,9,3,13,0.47,8,Rain,74
2012-9-22,70,62,54,60,56,49,100,83,66,29.90,29.76,29.66,10,10,8,24,8,33,0.02,6,Rain,200
2012-9-23,61,52,42,48,44,39,93,70,46,30.10,29.98,29.83,10,10,7,21,9,26,0.03,5,Rain,238
2012-9-24,62,48,34,45,39,34,100,76,51,30.13,30.07,29.98,10,7,1,24,8,31,0.00,1,,203
2012-9-25,69,58,47,51,45,39,93,70,47,29.98,29.95,29.92,10,10,10,22,11,29,T,2,Rain,214
2012-9-26,71,61,50,59,52,45,83,72,60,30.10,29.95,29.90,10,10,10,21,7,26,0.01,7,Rain,213
2012-9-27,60,49,37,48,40,36,100,71,42,30.30,30.23,30.12,10,7,0,10,3,14,0.00,2,Fog,336
2012-9-28,66,50,33,48,40,32,100,74,48,30.25,30.14,30.04,10,7,0,8,1,10,0.00,3,Fog,20
2012-9-29,62,54,45,52,48,43,100,82,64,30.06,30.02,29.97,10,7,0,17,6,21,0.00,8,Fog,37
2012-9-30,54,52,50,52,51,48,100,95,89,29.97,29.84,29.65,10,5,2,13,6,16,0.54,8,Rain,5